Regional Weather Roundup
Issued by NWS

Home | Current Version | Previous Version | Graphics & Text | Print | Product List | Glossary On
Versions: 1 2 3 4 5 6 7 8 9 10 11 12 13 14 15 16 17 18 19 20 21 22 23 24 25 26 27 28 29 30 31 32 33 34 35 36 37 38 39 40 41 42 43 44 45 46 47 48 49 50
000
ASUS43 KFSD 300302
RWRSD

WEATHER ROUNDUP FOR SOUTH DAKOTA
NATIONAL WEATHER SERVICE SIOUX FALLS SD
1000 PM CDT MON JUN 29 2015

NOTE: "FAIR" INDICATES FEW OR NO CLOUDS BELOW 12,000 FEET WITH NO
SIGNIFICANT WEATHER AND/OR OBSTRUCTIONS TO VISIBILITY.


SDZ001>005-009-010-012>017-300400-
NORTHWEST AND NORTH CENTRAL SOUTH DAKOTA

CITY           SKY/WX    TMP DP  RH WIND       PRES   REMARKS
BUFFALO          N/A     81  65  58 W6        29.92R
FAITH            N/A     76  62  62 S10       29.95S
MOBRIDGE       CLEAR     82  61  48 E9        29.88S
$$

SDZ012>016-024>037-041>051-057-063-072>074-300400-
SOUTHWEST AND SOUTH CENTRAL SOUTH DAKOTA

CITY           SKY/WX    TMP DP  RH WIND       PRES   REMARKS
RAPID CTY ARPT CLEAR     75  63  66 SW3       30.02S
PIERRE         CLEAR     79  60  52 S5        29.90S
CUSTER         PTCLDY    65  56  72 NW3       30.21S
ELLSWORTH AFB  CLEAR     77  61  56 SW7       30.02S
PHILIP         CLEAR     78  66  66 S7        29.94S
PINE RIDGE     CLEAR     70  62  76 E5        30.05R
WINNER         FAIR      82  51  34 CALM      29.95S
$$

SDZ004>011-016>023-039-040-300400-
NORTHEAST SOUTH DAKOTA

CITY           SKY/WX    TMP DP  RH WIND       PRES   REMARKS
ABERDEEN       CLEAR     74  62  66 NE8       29.91R
WATERTOWN      CLOUDY    66  61  84 N7        29.92R
BROOKINGS      PTCLDY    70  61  73 CALM      29.92R
SISSETON         N/A     66  62  87 N7        29.90R
$$

SDZ017-020-022-023-036>040-048>070-300400-
SOUTHEAST SOUTH DAKOTA

CITY           SKY/WX    TMP DP  RH WIND       PRES   REMARKS
SIOUX FALLS    MOCLDY    73  63  70 CALM      29.90R
HURON          PTCLDY    74  68  81 CALM      29.89R
CHAMBERLAIN    PTCLDY    81  58  45 CALM      29.92S
MITCHELL       PTCLDY    77  66  68 SW6       29.90S
YANKTON        PTCLDY    75  63  64 W3        29.90R
$$

ABBREVIATIONS USED IN REMARKS
   TC - TEMPERATURE IN CELSIUS
  WCI - WIND CHILL INDEX
   HX - HEAT INDEX
  VSB - VISIBILITY




USA.gov is the U.S. government's official web portal to all federal, state and local government web resources and services.